This is the latest recevied weather packets stored in our database for station/object YM2KV-13. If no packets are shown the sender has not sent any weather packets the latest 10 day(s).
| Time | Temp. | Humidity | Pressure | Rain* | Wind** | Luminosity | Snow |
|---|---|---|---|---|---|---|---|
| 1777975187 | 12.78° C | 82% | 1025.9 hPa | - | - | - | - |
| 1777974587 | 12.78° C | 86% | 1025.9 hPa | - | - | - | - |
| 1777973987 | 12.22° C | 84% | 1026 hPa | - | - | - | - |
| 1777973387 | 12.22° C | 88% | 1026 hPa | - | - | - | - |
| 1777972787 | 11.67° C | 86% | 1026.1 hPa | - | - | - | - |
| 1777972187 | 11.67° C | 85% | 1026.1 hPa | - | - | - | - |
| 1777971587 | 12.22° C | 82% | 1025.9 hPa | - | - | - | - |
| 1777970987 | 12.22° C | 84% | 1026 hPa | - | - | - | - |
| 1777970387 | 11.67° C | 86% | 1026.1 hPa | - | - | - | - |
| 1777969787 | 11.67° C | 85% | 1026.1 hPa | - | - | - | - |
| 1777969187 | 12.22° C | 87% | 1026 hPa | - | - | - | - |
| 1777968587 | 11.67° C | 89% | 1026.1 hPa | - | - | - | - |
| 1777967987 | 11.11° C | 89% | 1026 hPa | - | - | - | - |
| 1777967387 | 11.11° C | 89% | 1025.9 hPa | - | - | - | - |
| 1777966787 | 11.11° C | 90% | 1025.9 hPa | - | - | - | - |
| 1777966187 | 11.11° C | 89% | 1025.8 hPa | - | - | - | - |
| 1777965587 | 11.11° C | 88% | 1025.8 hPa | - | - | - | - |
| 1777964987 | 11.11° C | 89% | 1025.7 hPa | - | - | - | - |
| 1777964387 | 11.11° C | 89% | 1025.7 hPa | - | - | - | - |
| 1777963787 | 10.56° C | 91% | 1025.7 hPa | - | - | - | - |
| 1777963187 | 10.56° C | 91% | 1025.7 hPa | - | - | - | - |
| 1777962587 | 10° C | 94% | 1025.7 hPa | - | - | - | - |
| 1777961987 | 10° C | 95% | 1025.6 hPa | - | - | - | - |
| 1777961387 | 9.44° C | 95% | 1025.5 hPa | - | - | - | - |
| 1777960787 | 9.44° C | 95% | 1025.5 hPa | - | - | - | - |
* Rain since midnight (hover to see other rain measurements)
** Current wind speed in m/s (hover to see current wind gust speed)